Starlink 5454

operational
NORAD ID: 54774 Int'l Des: 2022-175 Owner: SPXS Country: US Constellation: starlink
LEOCIRCULAR

Über Starlink 5454

Beschreibung wird geladen...

Live-Position

3D-Globus wird geladen...

Nächste Überflüge

Höhenverlauf

Altitude vs Time

uPlot chart will show altitude changes over time

Zweizeiliger Elementsatz

1 54774U 22175S 25306.10773034 .00000260 00000-0 34434-4 0 9995
2 54774 53.2197 241.5340 0002420 102.0947 258.0317 15.08864925160872
Epoch: 2. Nov. 2025 • Age: 19 hours

Aktueller Status

Höhe 540.3 km
Geschwindigkeit 7.59 km/s
Subsatellitenpunkt 5.22°N, 125.92°W
Startdatum 17. Dez. 2022
Alter 2.8 years
Typ internet

Technische Details

Klassifizierung Payload
Masse 305.00 kg
Trockenmasse 290.00 kg
Gesamtmasse 305.00 kg
Länge 0.20 m
Durchmesser 2.80 m
Spannweite 9.00 m
Form Box + pan
Hersteller SPXS
Bus-Typ Starlink
Phasenstatus In Orbit
Besitzer/Staat SPXS/US

Große Konstellationen

Loading constellations...